Location: Clanezzo
(45.7500°N, 9.6000°E)
Time: 00:24:49
(UTC+00:00)

Cosmos 1536 - Pass Details

Date: 12 May 2021
Orbit: 539 x 559 km, 82.5° (Epoch: 23 June)

Event Time Altitude Azimuth Distance (km) Brightness Sun altitude
Rises 21:00:02 0° 354° (N) 2,746 7.5 -18.7°
Reaches altitude 10° 21:02:14 10° 358° (N) 1,843 6.3 -18.9°
Maximum altitude 21:06:15 61° 79° (E) 632 2.9 -19.3°
Enters shadow 21:06:58 51° 125° (SE) 701 2.9 -19.4°
